Location: Albany
(35.0170°S, 117.8920°E)
Time: 18:19:55
(UTC+08:00)

S-56A Canister/Altair - Visible Passes

Search period start: 18 June 2021 00:00
Search period end: 28 June 2021 00:00
Orbit: 632 x 2500 km, 38.9° (Epoch: 17 June)

Date Brightness Start Highest point End Pass type
(mag) Time Alt. Az. Time Alt. Az. Time Alt. Az.
18 Jun 9.9 18:23:32 10° W 18:38:55 77° S 18:47:10 28° ESE visible
18 Jun 9.5 20:31:49 10° WSW 20:44:36 72° SW 20:44:36 72° SW visible
18 Jun 11.3 22:39:52 10° WSW 22:42:01 16° WSW 22:42:01 16° WSW visible
19 Jun 10.0 17:49:48 10° W 18:05:14 78° S 18:16:17 17° ESE visible
19 Jun 9.3 19:57:56 10° WSW 20:12:47 81° SSE 20:13:43 77° ESE visible
19 Jun 10.9 22:05:59 10° WSW 22:11:09 26° WSW 22:11:09 26° WSW visible
20 Jun 10.1 17:16:09 10° W 17:31:29 80° SSW 17:45:04 10° ESE visible
20 Jun 9.5 19:24:05 10° WSW 19:39:16 79° S 19:42:53 55° E visible
20 Jun 10.4 21:32:06 10° WSW 21:40:19 40° W 21:40:19 40° W visible
21 Jun 9.8 18:50:17 10° W 19:05:40 78° S 19:12:06 37° E visible
21 Jun 9.8 20:58:14 10° WSW 21:09:32 58° W 21:09:32 58° W visible
22 Jun 9.9 18:16:32 10° W 18:31:59 77° S 18:41:22 24° E visible
22 Jun 9.5 20:24:23 10° WSW 20:38:49 77° NW 20:38:49 77° NW visible
22 Jun 11.2 22:32:58 10° WSW 22:36:16 18° W 22:36:16 18° W visible
23 Jun 10.0 17:42:52 10° W 17:58:15 76° S 18:10:43 13° E visible
23 Jun 9.5 19:50:34 10° WSW 20:05:38 83° NNW 20:08:10 65° NE visible
23 Jun 10.8 21:58:52 10° WSW 22:05:38 28° W 22:05:38 28° W visible
24 Jun 10.1 17:09:16 10° W 17:24:28 76° S 17:38:24 10° E visible
24 Jun 9.7 19:16:48 10° WSW 19:32:09 87° NNW 19:37:38 43° ENE visible
24 Jun 10.4 21:24:50 10° WSW 21:35:05 39° WNW 21:35:05 39° WNW visible
25 Jun 9.8 18:43:06 10° WSW 18:58:34 89° SSE 19:07:11 27° ENE visible
25 Jun 10.0 20:50:53 10° WSW 21:04:26 49° NW 21:04:40 49° NW visible
26 Jun 9.9 18:09:27 10° WSW 18:24:55 86° SSE 18:36:53 14° ENE visible
26 Jun 9.9 20:17:00 10° WSW 20:31:14 55° NW 20:34:23 47° N visible
26 Jun 11.3 22:27:47 10° W 22:31:51 15° WNW 22:31:51 15° WNW visible
27 Jun 10.0 17:35:53 10° WSW 17:51:12 83° SSE 18:04:58 10° ENE visible
27 Jun 10.0 19:43:11 10° WSW 19:57:55 61° NW 20:04:14 34° NNE visible
27 Jun 11.0 21:52:57 10° W 22:01:44 21° NW 22:01:44 21° NW visible
